TimeCDT,TemperatureF,Dew PointF,Humidity,Sea Level PressureIn,VisibilityMPH,Wind Direction,Wind SpeedMPH,Gust SpeedMPH,PrecipitationIn,Events,Conditions,WindDirDegrees,DateUTC
12:15 AM,57.4,34.7,43,29.65,10.0,South,16.1,-,N/A,,Clear,190,2013-04-06 05:15:00
12:35 AM,57.6,35.6,44,29.64,10.0,South,19.6,25.3,N/A,,Mostly Cloudy,190,2013-04-06 05:35:00
12:55 AM,58.1,36.0,44,29.64,10.0,South,19.6,-,N/A,,Overcast,190,2013-04-06 05:55:00
1:15 AM,57.2,36.5,46,29.64,10.0,South,15.0,-,N/A,,Scattered Clouds,190,2013-04-06 06:15:00
1:35 AM,56.8,36.9,47,29.63,10.0,South,17.3,-,N/A,,Clear,190,2013-04-06 06:35:00
1:55 AM,56.3,37.4,49,29.63,10.0,South,15.0,-,N/A,,Scattered Clouds,190,2013-04-06 06:55:00
2:15 AM,55.8,37.4,50,29.62,10.0,South,13.8,-,N/A,,Clear,180,2013-04-06 07:15:00
2:35 AM,55.6,37.8,51,29.60,10.0,South,15.0,21.9,N/A,,Scattered Clouds,180,2013-04-06 07:35:00
2:55 AM,55.4,38.1,52,29.59,10.0,South,16.1,21.9,N/A,,Scattered Clouds,190,2013-04-06 07:55:00
3:15 AM,55.4,38.5,53,29.59,10.0,SSW,11.5,-,N/A,,Mostly Cloudy,200,2013-04-06 08:15:00
3:35 AM,55.4,39.2,54,29.58,10.0,SSW,19.6,24.2,N/A,,Mostly Cloudy,200,2013-04-06 08:35:00
3:55 AM,55.4,39.4,55,29.57,10.0,SSW,17.3,-,N/A,,Mostly Cloudy,200,2013-04-06 08:55:00
4:15 AM,54.1,39.7,58,29.57,10.0,SSW,13.8,24.2,N/A,,Scattered Clouds,210,2013-04-06 09:15:00
4:35 AM,54.0,40.1,59,29.57,10.0,SSW,17.3,-,N/A,,Scattered Clouds,210,2013-04-06 09:35:00
4:55 AM,53.1,40.3,62,29.57,10.0,SW,10.4,-,N/A,,Clear,220,2013-04-06 09:55:00
5:15 AM,52.9,40.6,63,29.57,10.0,SSW,12.7,20.7,N/A,,Clear,200,2013-04-06 10:15:00
5:35 AM,52.0,40.5,65,29.57,10.0,SSW,6.9,-,N/A,,Clear,200,2013-04-06 10:35:00
5:55 AM,51.1,40.8,68,29.57,10.0,South,9.2,-,N/A,,Clear,190,2013-04-06 10:55:00
6:15 AM,51.6,41.0,67,29.57,10.0,SW,9.2,-,N/A,,Clear,230,2013-04-06 11:15:00
6:35 AM,51.3,41.2,68,29.58,10.0,WSW,6.9,-,N/A,,Clear,240,2013-04-06 11:35:00
6:55 AM,51.1,41.4,69,29.57,10.0,WSW,6.9,-,N/A,,Clear,250,2013-04-06 11:55:00
7:15 AM,50.5,35.8,57,29.58,10.0,NW,10.4,20.7,N/A,,Clear,310,2013-04-06 12:15:00
7:35 AM,48.9,33.3,55,29.59,10.0,NW,8.1,-,N/A,,Clear,310,2013-04-06 12:35:00
7:55 AM,48.2,33.4,57,29.59,10.0,NW,15.0,19.6,N/A,,Clear,320,2013-04-06 12:55:00
8:15 AM,48.7,33.8,56,29.60,10.0,NW,10.4,-,N/A,,Clear,310,2013-04-06 13:15:00
8:35 AM,48.9,33.4,55,29.62,10.0,NW,13.8,18.4,N/A,,Scattered Clouds,310,2013-04-06 13:35:00
8:55 AM,48.2,33.6,57,29.62,10.0,NW,17.3,24.2,N/A,,Mostly Cloudy,310,2013-04-06 13:55:00
9:15 AM,48.2,33.4,57,29.64,10.0,WNW,18.4,-,N/A,,Overcast,300,2013-04-06 14:15:00
9:35 AM,47.3,33.1,58,29.64,10.0,WNW,21.9,28.8,N/A,,Overcast,300,2013-04-06 14:35:00
9:55 AM,47.3,33.4,59,29.63,10.0,NW,15.0,25.3,N/A,,Mostly Cloudy,310,2013-04-06 14:55:00
10:15 AM,46.9,35.6,65,29.63,10.0,NW,18.4,24.2,N/A,Rain,Light Rain,320,2013-04-06 15:15:00
10:35 AM,45.1,36.1,71,29.65,10.0,NW,17.3,21.9,N/A,,Light Drizzle,310,2013-04-06 15:35:00
10:55 AM,44.6,40.1,84,29.64,10.0,NW,16.1,20.7,N/A,,Scattered Clouds,310,2013-04-06 15:55:00
11:15 AM,47.7,39.9,75,29.64,10.0,NW,19.6,26.5,N/A,,Clear,310,2013-04-06 16:15:00
11:35 AM,51.8,39.2,62,29.64,10.0,NW,20.7,26.5,N/A,,Clear,320,2013-04-06 16:35:00
11:55 AM,55.6,37.4,50,29.64,10.0,NW,23.0,29.9,N/A,,Clear,320,2013-04-06 16:55:00
12:15 PM,57.7,36.5,45,29.64,10.0,NW,21.9,31.1,N/A,,Clear,320,2013-04-06 17:15:00
12:35 PM,59.9,36.1,41,29.63,10.0,NNW,24.2,33.4,N/A,,Scattered Clouds,330,2013-04-06 17:35:00
12:55 PM,61.9,34.9,36,29.64,10.0,NW,24.2,33.4,N/A,,Clear,310,2013-04-06 17:55:00
1:15 PM,63.0,32.7,32,29.64,10.0,NW,24.2,33.4,N/A,,Scattered Clouds,310,2013-04-06 18:15:00
1:35 PM,63.5,32.2,31,29.64,10.0,NNW,25.3,32.2,N/A,,Scattered Clouds,330,2013-04-06 18:35:00
1:55 PM,64.6,32.5,30,29.64,10.0,NW,20.7,32.2,N/A,,Clear,320,2013-04-06 18:55:00
2:15 PM,65.3,33.1,30,29.64,10.0,NW,24.2,31.1,N/A,,Clear,320,2013-04-06 19:15:00
2:35 PM,65.5,33.4,30,29.65,10.0,NNW,19.6,27.6,N/A,,Scattered Clouds,330,2013-04-06 19:35:00
2:55 PM,64.0,34.0,33,29.65,10.0,NW,20.7,29.9,N/A,,Mostly Cloudy,320,2013-04-06 19:55:00
3:15 PM,67.1,35.4,31,29.65,10.0,NW,23.0,38.0,N/A,,Scattered Clouds,320,2013-04-06 20:15:00
3:35 PM,67.3,35.6,31,29.65,10.0,NNW,21.9,32.2,N/A,,Clear,330,2013-04-06 20:35:00
3:55 PM,68.2,34.5,29,29.65,10.0,NW,19.6,32.2,N/A,,Clear,320,2013-04-06 20:55:00
4:15 PM,68.0,34.5,29,29.65,10.0,NNW,21.9,27.6,N/A,,Clear,340,2013-04-06 21:15:00
4:35 PM,69.3,33.3,26,29.66,10.0,NNW,19.6,31.1,N/A,,Clear,340,2013-04-06 21:35:00
4:55 PM,69.8,33.8,27,29.66,10.0,NNW,15.0,27.6,N/A,,Clear,330,2013-04-06 21:55:00
5:15 PM,69.4,34.9,28,29.66,10.0,NNW,15.0,26.5,N/A,,Scattered Clouds,340,2013-04-06 22:15:00
5:35 PM,67.8,34.9,30,29.67,10.0,NNW,12.7,18.4,N/A,,Scattered Clouds,330,2013-04-06 22:35:00
5:55 PM,65.5,37.8,36,29.69,10.0,West,11.5,19.6,N/A,Rain,Rain,280,2013-04-06 22:55:00
6:15 PM,57.2,47.7,70,29.73,7.0,NW,18.4,39.1,0.01,Rain,Rain,310,2013-04-06 23:15:00
6:35 PM,59.7,46.6,62,29.70,10.0,WNW,6.9,10.4,0.01,,Mostly Cloudy,300,2013-04-06 23:35:00
6:55 PM,60.1,46.8,61,29.70,10.0,West,3.5,-,0.01,,Clear,280,2013-04-06 23:55:00
7:15 PM,58.6,46.4,64,29.71,10.0,WSW,4.6,-,N/A,,Clear,240,2013-04-07 00:15:00
7:35 PM,58.3,46.8,66,29.72,10.0,Calm,Calm,-,N/A,,Clear,0,2013-04-07 00:35:00
7:55 PM,55.0,45.7,71,29.73,10.0,WNW,6.9,-,N/A,,Clear,300,2013-04-07 00:55:00
8:15 PM,52.9,45.5,76,29.73,10.0,NNW,3.5,-,N/A,,Clear,330,2013-04-07 01:15:00
8:35 PM,51.6,45.0,78,29.73,10.0,Calm,Calm,-,N/A,,Clear,0,2013-04-07 01:35:00
8:55 PM,49.1,44.4,84,29.74,10.0,Calm,Calm,-,N/A,,Clear,0,2013-04-07 01:55:00
9:15 PM,46.4,43.2,88,29.74,10.0,SW,3.5,-,N/A,,Clear,220,2013-04-07 02:15:00
9:35 PM,44.6,42.1,91,29.76,10.0,Calm,Calm,-,N/A,,Clear,0,2013-04-07 02:35:00
9:55 PM,48.4,45.3,89,29.77,10.0,Calm,Calm,-,N/A,,Clear,0,2013-04-07 02:55:00
10:15 PM,45.5,42.6,90,29.78,10.0,SW,3.5,-,N/A,,Clear,220,2013-04-07 03:15:00
10:35 PM,42.3,40.3,93,29.78,10.0,Calm,Calm,-,N/A,,Clear,0,2013-04-07 03:35:00
10:55 PM,41.7,39.7,93,29.78,10.0,Calm,Calm,-,N/A,,Clear,0,2013-04-07 03:55:00
11:15 PM,41.4,40.3,96,29.78,10.0,Calm,Calm,-,N/A,,Clear,0,2013-04-07 04:15:00
11:35 PM,40.3,39.2,96,29.79,10.0,Calm,Calm,-,N/A,,Clear,0,2013-04-07 04:35:00
11:55 PM,39.4,38.5,97,29.80,10.0,Calm,Calm,-,N/A,,Clear,0,2013-04-07 04:55:00